ARABSAT 1B R/B(PAM-D), 15836

Orbit data source: Space-Track

ARABSAT 1B R/B(PAM-D), 15836 is space debris in HEO originally from a launch on Mon, 17 Jun 1985 UTC launched from the Air Force Eastern Test Range (AFETR). Debris objects in space refer to the collection of defunct objects orbiting the Earth. Examples of debris include non-operational satellites, rocket bodies, and fragments generated from explosions, collisions, or faulty payload assembly.

Loading next visibility...
Identifier
15836, 1985-048G
Orbit
HEO
Country
Flag of USUS
Related business
Manufacturer
Thiokol/TE
Mission
Spacecraft
Bus & Motor
STAR 48, Unknown motor
Mass
132 kg wet, 132 kg dry
Launch date (UTC)
1985-06-17 (41 years ago)
Launch vehicle
Unknown
Launch site
Air Force Eastern Test Range (AFETR)
Object type
Payload
Rocket body
Debris
Shape & HBR
Unknown
Radar Cross Section
Large (>1 m²)

Expand to show TLE details & history
Last TLE update: 1 day ago

TLE from 1 day ago
0 ARABSAT 1B R/B(PAM-D)
1 15836U 85048G   26093.97170145  .00001552  00000-0  31093-2 0  9993
2 15836  26.9321  45.0656 7117987 356.2129   0.2969  2.42533142108452
Epoch: 2026-04-03T23:19Z
TLE epoch observation values (Epoch: 2026-04-03T23:19:15.005Z)
Latitude
-0.00087°
Longitude
-137.05834°
Altitude
353.649 km
Speed
10.069 km/s
True Right ascension
03h 00m 12s
True Declination
0° 00' 03"
Sunlit
Object was in daylight at epoch
Visualization orbit readout
Latitude
Unknown
Longitude
Unknown
Altitude
Unknown
Speed
Unknown
Apparent Right ascension
Unknown
Apparent Declination
Unknown
Sunlit
N/A
Visualization observer readout
Local Sidereal Time
07:44:20
Azimuth
Unknown
Elevation
Unknown
Doppler factor
Unknown
Orbital elements
Apogee altitude
33,684.899 km
Perigee altitude
366.943 km
Semi-major axis
23,404.058 km
Eccentricity
0.7118
Inclination
26.9321°
RAAN
45.0656°
Arg. of periapsis
356.2129°
True anomaly
2.51002°
Mean anomaly
0.2969°
Eccentric anomaly
1.03005°
Mean motion
0.60619 °/min
Orbital period
593.88 mins
BSTAR
0.0031093
Loading maneuver chart data...
Computing Atmospheric mass density...
Loading historical data...
Loading historical data...
Loading historical data...
Loading historical data...
Loading historical data...
Loading historical data...
Loading historical data...

Documentation

Showing up to 5 results
|